Location: Unspecified
(0.0000°N, 0.0000°E)
Time: 09:00:43
(UTC+01:00)

IUS-9 SRM-1 - Visible Passes

Search period start: 20 January 2017 00:00
Search period end: 30 January 2017 00:00
Orbit: 240 x 19874 km, 26.4° (Epoch: 19 January)

Date Brightness Start Highest point End Pass type
(mag) Time Alt. Az. Time Alt. Az. Time Alt. Az.
20 Jan 8.0 18:35:44 10° WSW 22:30:09 68° SSE 23:03:07 54° E visible
21 Jan 8.2 17:47:44 10° WSW 21:18:50 61° SE 22:20:30 40° E visible
22 Jan 8.4 17:00:49 10° WSW 19:53:11 54° SE 21:37:50 27° E visible
23 Jan 8.6 02:39:34 10° WSW 03:27:09 20° W 03:27:09 20° W visible
23 Jan 8.5 16:14:39 10° WSW 16:50:26 53° S 20:55:09 16° E visible
24 Jan 8.4 00:17:34 10° WSW 02:44:27 33° W 02:44:27 33° W visible
24 Jan 7.9 15:29:04 10° W 15:52:07 53° S 20:06:34 10° E visible
24 Jan 8.2 22:43:57 10° WSW 02:01:43 46° W 02:01:43 46° W visible
25 Jan 8.1 21:35:05 10° WSW 01:18:58 62° W 01:18:58 62° W visible
26 Jan 7.9 20:35:53 10° WSW 00:36:11 78° W 00:36:11 78° W visible
27 Jan 7.9 19:41:40 10° WSW 23:49:34 88° SE 23:53:23 85° E visible
28 Jan 7.9 18:50:24 10° WSW 22:50:35 79° SE 23:10:33 68° E visible
29 Jan 8.0 18:01:01 10° WSW 21:44:56 71° SE 22:27:43 52° E visible
